Bel Air, Maryland - USA |
Today's Data File |
5/8/26
Time Wind Dir Wind Spd Wind Gust Hum In Humidity Temp In Temp Raw Barom Wind Chill Press Alt Cloud Base Dens Alt Temp Out R DailyRain 24HrRain RainRate
� mph mph % % �F �F in �F ft ft ft �F/hr in in in/hr
12:00am 238 1 4 41 80 73.8 52.9 29.27 52.9 605 1498 363 -1.08 0.00 0.11 0.000
12:01am 238 1 1 41 80 73.8 52.8 29.27 52.8 604 1497 355 -1.16 0.00 0.11 0.000
12:02am 238 2 2 41 80 73.8 52.8 29.27 52.8 603 1497 354 -1.14 0.00 0.11 0.000
12:03am 238 0 2 41 80 73.8 52.8 29.27 52.8 604 1497 355 -1.13 0.00 0.11 0.000
12:04am 238 0 2 41 80 73.8 52.7 29.27 52.7 603 1497 348 -1.21 0.00 0.11 0.000
12:05am 238 2 2 41 80 73.8 52.7 29.27 52.7 602 1497 346 -1.19 0.00 0.11 0.000
12:06am 238 1 2 41 80 73.8 52.6 29.27 52.6 602 1496 340 -1.26 0.00 0.11 0.000
12:07am 238 0 2 41 80 73.8 52.6 29.27 52.6 602 1496 340 -1.24 0.00 0.11 0.000
12:08am 238 0 2 41 80 73.8 52.5 29.27 52.5 602 1495 333 -1.32 0.00 0.11 0.000
12:09am 238 0 2 41 80 73.8 52.5 29.28 52.5 601 1495 332 -1.30 0.00 0.11 0.000
12:10am 238 0 2 41 80 73.8 52.5 29.27 52.5 602 1495 333 -1.28 0.00 0.11 0.000
12:11am 238 0 0 41 81 73.8 52.4 29.27 52.4 602 1413 326 -1.36 0.00 0.11 0.000
12:12am 238 0 0 41 81 73.8 52.3 29.28 52.3 600 1412 317 -1.44 0.00 0.11 0.000
12:13am 238 0 0 41 81 73.8 52.4 29.28 52.4 599 1413 323 -1.31 0.00 0.11 0.000
12:14am 238 0 0 41 81 73.8 52.4 29.28 52.4 600 1413 324 -1.29 0.00 0.11 0.000
12:15am 238 0 0 41 81 73.8 52.3 29.28 52.3 599 1412 316 -1.37 0.00 0.11 0.000
12:16am 238 0 0 41 82 73.8 52.3 29.28 52.3 598 1331 315 -1.34 0.00 0.11 0.000
12:17am 238 0 0 41 82 73.8 52.2 29.28 52.2 599 1330 310 -1.42 0.00 0.11 0.000
12:18am 238 0 0 41 82 73.8 52.2 29.28 52.2 599 1330 310 -1.40 0.00 0.11 0.000
12:19am 238 0 0 41 82 73.8 52.2 29.28 52.2 599 1330 310 -1.38 0.00 0.11 0.000
12:20am 238 0 0 41 82 73.8 52.1 29.28 52.1 599 1330 303 -1.45 0.00 0.11 0.000
12:21am 238 0 0 41 82 73.8 52.0 29.28 52.0 597 1329 294 -1.53 0.00 0.11 0.000
12:22am 238 0 0 41 82 73.8 52.0 29.28 52.0 598 1329 295 -1.50 0.00 0.11 0.000
12:23am 238 0 0 41 82 73.8 52.0 29.28 52.0 598 1329 295 -1.48 0.00 0.11 0.000
12:24am 238 0 0 41 82 73.8 52.0 29.28 52.0 599 1329 296 -1.45 0.00 0.11 0.000
12:25am 238 0 0 41 82 73.8 51.9 29.28 51.9 598 1328 289 -1.53 0.00 0.11 0.000
12:26am 238 0 0 41 82 73.8 51.9 29.28 51.9 597 1328 287 -1.51 0.00 0.11 0.000
12:27am 238 0 0 41 82 73.8 51.8 29.28 51.8 598 1328 282 -1.58 0.00 0.11 0.000
12:28am 238 0 0 41 82 73.8 51.8 29.28 51.8 598 1328 282 -1.55 0.00 0.11 0.000
12:29am 238 0 0 41 82 73.8 51.8 29.28 51.8 598 1328 282 -1.53 0.00 0.11 0.000
12:30am 238 0 0 41 82 73.8 51.7 29.28 51.7 598 1327 275 -1.60 0.00 0.11 0.000
12:31am 238 0 0 41 82 73.8 51.7 29.28 51.7 597 1327 274 -1.57 0.00 0.11 0.000
12:32am 238 0 0 41 82 73.8 51.7 29.28 51.7 598 1327 275 -1.55 0.00 0.11 0.000
12:33am 238 0 0 41 83 73.8 51.6 29.28 51.6 596 1246 266 -1.62 0.00 0.11 0.000
12:34am 238 0 0 41 83 73.8 51.6 29.28 51.6 596 1246 266 -1.60 0.00 0.11 0.000
12:35am 238 0 0 41 83 73.8 51.6 29.28 51.6 596 1246 266 -1.57 0.00 0.11 0.000
12:36am 238 0 0 41 83 73.8 51.5 29.28 51.5 596 1246 260 -1.64 0.00 0.11 0.000
12:37am 238 0 0 41 83 73.8 51.5 29.28 51.5 596 1246 258 -1.62 0.00 0.11 0.000
12:38am 238 0 0 41 83 73.8 51.5 29.28 51.5 595 1246 257 -1.59 0.00 0.11 0.000
12:39am 238 0 0 41 83 73.8 51.5 29.28 51.5 595 1246 257 -1.56 0.00 0.11 0.000
12:40am 238 0 0 41 83 73.8 51.4 29.28 51.4 595 1245 251 -1.64 0.00 0.11 0.000
12:41am 238 0 0 41 83 73.8 51.3 29.28 51.3 595 1245 244 -1.71 0.00 0.10 0.000
12:42am 238 0 0 41 83 73.8 51.3 29.28 51.3 595 1245 244 -1.68 0.00 0.10 0.000
12:43am 238 0 0 41 83 73.8 51.3 29.28 51.3 595 1245 244 -1.65 0.00 0.10 0.000
12:44am 238 0 0 41 83 73.8 51.3 29.28 51.3 595 1245 244 -1.62 0.00 0.10 0.000
12:45am 238 0 0 41 83 73.8 51.2 29.28 51.2 594 1244 236 -1.70 0.00 0.10 0.000
12:46am 238 0 0 41 83 73.8 51.2 29.28 51.2 594 1244 236 -1.67 0.00 0.08 0.000
12:47am 238 0 0 41 83 73.8 51.2 29.28 51.2 594 1244 236 -1.64 0.00 0.08 0.000
12:48am 238 0 0 41 83 73.8 51.1 29.28 51.1 594 1244 229 -1.71 0.00 0.08 0.000
12:49am 238 0 0 41 83 73.8 51.1 29.28 51.1 594 1244 229 -1.69 0.00 0.08 0.000
12:50am 238 0 0 41 83 73.8 51.0 29.28 51.0 594 1243 223 -1.76 0.00 0.08 0.000
12:51am 238 0 0 41 83 73.8 51.0 29.28 51.0 594 1243 223 -1.73 0.00 0.08 0.000
12:52am 238 0 0 41 84 73.8 51.0 29.28 51.0 594 1164 223 -1.70 0.00 0.08 0.000
12:53am 238 0 0 41 84 73.8 51.0 29.28 51.0 593 1164 222 -1.67 0.00 0.08 0.000
12:54am 238 0 0 41 84 73.8 51.0 29.28 51.0 593 1164 222 -1.65 0.00 0.08 0.000
12:55am 238 0 0 41 84 73.8 50.9 29.28 50.9 593 1164 215 -1.72 0.00 0.08 0.000
12:56am 238 0 0 41 84 73.8 50.9 29.28 50.9 593 1164 215 -1.69 0.00 0.08 0.000
12:57am 238 0 0 41 84 73.8 50.8 29.28 50.8 593 1163 208 -1.76 0.00 0.08 0.000
12:58am 238 0 0 41 84 73.8 50.8 29.28 50.8 593 1163 208 -1.73 0.00 0.08 0.000
12:59am 238 0 0 41 84 73.8 50.8 29.29 50.8 592 1163 207 -1.70 0.00 0.08 0.000
1:00am 238 0 0 41 84 73.8 50.8 29.29 50.8 592 1163 207 -1.67 0.00 0.08 0.000
1:01am 238 0 0 41 84 73.8 50.8 29.29 50.8 592 1163 207 -1.65 0.00 0.08 0.000
1:02am 238 0 0 41 84 73.8 50.7 29.29 50.7 592 1163 200 -1.72 0.00 0.08 0.000
1:03am 238 0 0 41 84 73.8 50.7 29.29 50.7 592 1163 200 -1.69 0.00 0.08 0.000
1:04am 238 0 0 41 84 73.8 50.6 29.29 50.6 592 1162 194 -1.76 0.00 0.08 0.000
1:05am 238 0 0 41 84 73.8 50.6 29.29 50.6 592 1162 194 -1.73 0.00 0.08 0.000
1:06am 238 0 0 41 84 73.8 50.6 29.29 50.6 591 1162 193 -1.70 0.00 0.08 0.000
1:07am 238 0 0 41 84 73.8 50.5 29.29 50.5 591 1162 186 -1.77 0.00 0.08 0.000
1:08am 238 0 0 43 85 73.8 50.5 29.29 50.5 590 1083 185 -1.74 0.00 0.08 0.000
1:09am 238 0 0 41 85 73.8 50.5 29.29 50.5 590 1083 185 -1.72 0.00 0.08 0.000
1:10am 238 0 0 41 85 73.8 50.5 29.29 50.5 590 1083 185 -1.69 0.00 0.08 0.000
1:11am 238 0 0 41 85 73.8 50.5 29.29 50.5 590 1083 185 -1.66 0.00 0.08 0.000
1:12am 238 0 0 41 85 73.8 50.5 29.29 50.5 590 1083 185 -1.63 0.00 0.08 0.000
1:13am 238 0 0 41 85 73.8 50.4 29.29 50.4 587 1083 175 -1.70 0.00 0.08 0.000
1:14am 238 0 0 41 85 73.8 50.4 29.29 50.4 588 1083 176 -1.67 0.00 0.08 0.000
1:15am 238 0 0 41 85 73.8 50.4 29.29 50.4 588 1083 176 -1.65 0.00 0.08 0.000
1:16am 238 0 0 41 85 73.8 50.4 29.29 50.4 589 1083 177 -1.62 0.00 0.08 0.000
1:17am 238 0 0 41 85 73.8 50.4 29.29 50.4 589 1083 177 -1.59 0.00 0.08 0.000
1:18am 238 0 0 41 85 73.8 50.3 29.29 50.3 588 1082 169 -1.67 0.00 0.08 0.000
1:19am 238 0 0 41 85 73.8 50.3 29.29 50.3 588 1082 169 -1.64 0.00 0.08 0.000
1:20am 238 0 0 41 85 73.8 50.3 29.29 50.3 587 1082 168 -1.61 0.00 0.08 0.000
1:21am 238 0 0 41 85 73.8 50.3 29.29 50.3 587 1082 168 -1.59 0.00 0.07 0.000
1:22am 238 0 0 41 85 73.8 50.3 29.29 50.3 587 1082 168 -1.56 0.00 0.07 0.000
1:23am 238 0 0 41 85 73.8 50.3 29.29 50.3 588 1082 169 -1.54 0.00 0.07 0.000
1:24am 199 0 0 41 85 73.8 50.3 29.29 50.3 589 1082 170 -1.51 0.00 0.07 0.000
1:25am 199 0 0 41 85 73.8 50.3 29.29 50.3 588 1082 169 -1.49 0.00 0.07 0.000
1:26am 199 0 0 41 85 73.8 50.3 29.29 50.3 586 1082 167 -1.46 0.00 0.07 0.000
1:27am 199 0 0 43 85 73.8 50.3 29.29 50.3 587 1082 168 -1.44 0.00 0.07 0.000
1:28am 199 0 0 41 86 73.8 50.3 29.29 50.3 586 1005 167 -1.41 0.00 0.07 0.000
1:29am 199 0 0 41 86 73.8 50.3 29.29 50.3 586 1005 167 -1.39 0.00 0.07 0.000
1:30am 199 0 0 41 86 73.8 50.3 29.29 50.3 587 1005 168 -1.37 0.00 0.07 0.000
1:31am 258 2 2 41 86 73.8 50.3 29.29 50.3 584 1005 165 -1.35 0.00 0.06 0.000
1:32am 171 2 2 41 86 73.8 50.3 29.29 50.3 584 1005 165 -1.32 0.00 0.06 0.000
1:33am 172 1 2 41 86 74.0 50.3 29.29 50.3 584 1005 163 -1.30 0.00 0.06 0.000
1:34am 172 2 2 41 86 74.0 50.3 29.29 50.3 584 1005 163 -1.28 0.00 0.06 0.000
1:35am 172 2 2 41 86 74.0 50.3 29.30 50.3 582 1005 161 -1.26 0.00 0.06 0.000
1:36am 172 2 2 41 86 74.0 50.3 29.30 50.3 583 1005 162 -1.24 0.00 0.06 0.000
1:37am 172 1 3 41 86 74.0 50.4 29.30 50.4 581 1006 167 -1.12 0.00 0.06 0.000
1:38am 172 0 3 41 86 74.0 50.4 29.30 50.4 581 1006 167 -1.10 0.00 0.06 0.000
1:39am 172 0 3 41 86 74.0 50.3 29.30 50.3 580 1005 159 -1.18 0.00 0.06 0.000
1:40am 172 1 3 41 86 74.0 50.4 29.30 50.4 579 1006 164 -1.06 0.00 0.06 0.000
1:41am 172 1 1 41 86 74.0 50.3 29.30 50.3 579 1005 158 -1.14 0.00 0.06 0.000
1:42am 172 2 2 41 86 74.0 50.3 29.30 50.3 578 1005 157 -1.12 0.00 0.06 0.000
1:43am 172 0 2 41 86 74.0 50.3 29.30 50.3 578 1005 157 -1.11 0.00 0.06 0.000
1:44am 172 1 3 41 85 74.0 50.3 29.30 50.3 578 1082 157 -1.09 0.00 0.06 0.000
1:45am 172 2 3 41 85 74.0 50.3 29.30 50.3 578 1082 157 -1.07 0.00 0.06 0.000
1:46am 172 0 2 41 85 74.0 50.3 29.30 50.3 578 1082 157 -1.05 0.00 0.06 0.000
1:47am 172 1 2 41 85 74.0 50.3 29.30 50.3 578 1082 157 -1.03 0.00 0.06 0.000
1:48am 172 2 2 41 86 74.0 50.3 29.30 50.3 578 1005 157 -1.02 0.00 0.06 0.000
1:49am 172 1 2 41 85 74.0 50.3 29.30 50.3 578 1082 157 -1.00 0.00 0.06 0.000
1:50am 167 2 3 41 85 74.0 50.3 29.30 50.3 578 1082 157 -0.98 0.00 0.06 0.000
1:51am 320 2 3 41 85 74.0 50.3 29.30 50.3 577 1082 155 -0.97 0.00 0.06 0.000
1:52am 283 1 3 41 84 74.0 50.3 29.30 50.3 578 1161 157 -0.95 0.00 0.06 0.000
1:53am 283 0 3 41 84 74.0 50.3 29.30 50.3 577 1161 155 -0.94 0.00 0.06 0.000
1:54am 321 2 3 41 84 74.0 50.2 29.30 50.2 576 1160 148 -1.02 0.00 0.06 0.000
1:55am 321 0 3 41 84 74.0 50.3 29.30 50.3 577 1161 155 -0.90 0.00 0.06 0.000
1:56am 321 2 3 41 84 74.0 50.3 29.30 50.3 577 1161 155 -0.89 0.00 0.05 0.000
1:57am 321 1 3 41 84 74.0 50.3 29.30 50.3 577 1161 155 -0.87 0.00 0.05 0.000
1:58am 350 0 3 41 84 74.0 50.3 29.30 50.3 577 1161 155 -0.86 0.00 0.05 0.000
1:59am 7 3 3 41 83 74.0 50.3 29.30 50.0 575 1239 153 -0.85 0.00 0.05 0.000
2:00am 300 3 3 41 83 74.0 50.4 29.30 50.1 575 1240 160 -0.73 0.00 0.05 0.000
2:01am 300 0 3 41 83 74.0 50.4 29.30 50.4 575 1240 160 -0.72 0.00 0.05 0.000
2:02am 300 0 3 41 83 74.0 50.5 29.30 50.5 574 1241 165 -0.61 0.00 0.05 0.000
2:03am 18 1 3 41 83 74.0 50.5 29.30 50.5 575 1241 166 -0.60 0.00 0.05 0.000
2:04am 341 1 3 41 82 74.0 50.5 29.31 50.5 573 1320 164 -0.59 0.00 0.05 0.000
2:05am 341 2 3 41 82 74.0 50.5 29.31 50.5 573 1320 164 -0.58 0.00 0.05 0.000
2:06am 341 1 2 41 82 74.0 50.5 29.31 50.5 571 1320 161 -0.57 0.00 0.05 0.000
2:07am 266 0 2 41 82 74.0 50.5 29.31 50.5 573 1320 164 -0.56 0.00 0.05 0.000
2:08am 266 0 2 41 82 74.0 50.5 29.31 50.5 573 1320 164 -0.55 0.00 0.05 0.000
2:09am 266 0 2 41 81 74.0 50.5 29.31 50.5 572 1401 163 -0.54 0.00 0.05 0.000
2:10am 129 1 2 41 82 74.0 50.5 29.31 50.5 572 1320 162 -0.53 0.00 0.05 0.000
2:11am 129 1 2 41 82 74.0 50.5 29.31 50.5 571 1320 161 -0.52 0.00 0.05 0.000
2:12am 130 1 3 41 82 74.0 50.5 29.31 50.5 569 1320 158 -0.51 0.00 0.05 0.000
2:13am 125 0 3 41 81 74.0 50.5 29.31 50.5 569 1401 158 -0.51 0.00 0.05 0.000
2:14am 125 0 3 41 81 74.0 50.5 29.31 50.5 569 1401 158 -0.50 0.00 0.05 0.000
2:15am 125 0 3 41 81 74.0 50.5 29.31 50.5 568 1401 157 -0.49 0.00 0.05 0.000
2:16am 125 0 0 41 81 74.0 50.5 29.31 50.5 568 1401 157 -0.48 0.00 0.05 0.000
2:17am 125 1 1 41 81 74.0 50.5 29.31 50.5 566 1401 155 -0.47 0.00 0.05 0.000
2:18am 125 0 2 41 80 74.0 50.5 29.31 50.5 567 1482 156 -0.47 0.00 0.05 0.000
2:19am 317 4 4 41 81 74.0 50.5 29.31 49.4 568 1401 157 -0.46 0.00 0.05 0.000
2:20am 6 0 4 41 80 74.0 50.5 29.31 50.5 566 1482 155 -0.45 0.00 0.05 0.000
2:21am 4 3 3 41 81 74.0 50.5 29.31 50.2 565 1401 154 -0.44 0.00 0.05 0.000
2:22am 74 4 4 41 80 74.0 50.5 29.31 49.4 566 1482 155 -0.43 0.00 0.05 0.000
2:23am 339 0 4 41 79 74.0 50.5 29.31 50.5 567 1565 156 -0.43 0.00 0.05 0.000
2:24am 339 0 4 41 79 74.0 50.5 29.31 50.5 565 1565 154 -0.42 0.00 0.05 0.000
2:25am 339 0 4 41 80 74.0 50.5 29.31 50.5 566 1482 155 -0.41 0.00 0.05 0.000
2:26am 347 2 2 41 80 74.0 50.5 29.31 50.5 566 1482 155 -0.41 0.00 0.04 0.000
2:27am 199 1 4 41 80 74.0 50.4 29.31 50.4 565 1482 147 -0.50 0.00 0.04 0.000
2:28am 199 0 4 41 79 74.0 50.5 29.31 50.5 565 1565 154 -0.39 0.00 0.04 0.000
2:29am 199 0 4 41 79 74.0 50.3 29.32 50.3 564 1564 139 -0.58 0.00 0.04 0.000
2:30am 199 2 4 41 79 74.0 50.4 29.32 50.4 564 1564 146 -0.47 0.00 0.04 0.000
2:31am 199 2 2 41 79 74.0 50.4 29.32 50.4 562 1564 144 -0.47 0.00 0.04 0.000
2:32am 58 3 8 41 79 74.0 50.4 29.32 50.1 562 1564 144 -0.46 0.00 0.04 0.000
2:33am 56 1 8 41 77 74.0 50.4 29.32 50.4 562 1732 144 -0.45 0.00 0.04 0.000
2:34am 52 1 8 41 78 74.0 50.4 29.32 50.4 562 1648 144 -0.44 0.00 0.04 0.000
2:35am 51 2 8 41 78 74.0 50.4 29.32 50.4 562 1648 144 -0.43 0.00 0.04 0.000
2:36am 14 1 4 41 78 74.0 50.4 29.32 50.4 562 1648 144 -0.43 0.00 0.04 0.000
2:37am 12 1 4 41 77 74.0 50.4 29.32 50.4 562 1732 144 -0.42 0.00 0.04 0.000
2:38am 360 3 6 41 78 74.0 50.4 29.32 50.1 562 1648 144 -0.41 0.00 0.04 0.000
2:39am 360 1 6 41 77 74.0 50.4 29.32 50.4 562 1732 144 -0.41 0.00 0.04 0.000
2:40am 360 1 6 41 77 74.0 50.5 29.32 50.5 562 1733 150 -0.30 0.00 0.04 0.000
2:41am 360 2 2 41 77 74.0 50.5 29.32 50.5 561 1733 149 -0.30 0.00 0.04 0.000
2:42am 360 2 2 41 77 74.0 50.5 29.32 50.5 562 1733 150 -0.29 0.00 0.04 0.000
2:43am 360 1 2 41 76 74.0 50.4 29.32 50.4 561 1817 143 -0.38 0.00 0.04 0.000
2:44am 360 1 2 41 75 74.0 50.4 29.32 50.4 561 1903 143 -0.38 0.00 0.04 0.000
2:45am 360 1 2 41 75 74.0 50.4 29.32 50.4 561 1903 143 -0.37 0.00 0.04 0.000
2:46am 268 2 3 41 75 74.0 50.4 29.32 50.4 561 1903 143 -0.37 0.00 0.04 0.000
2:47am 268 1 3 41 75 74.0 50.4 29.32 50.4 561 1903 143 -0.36 0.00 0.04 0.000
2:48am 320 1 3 41 74 74.0 50.4 29.32 50.4 561 1991 143 -0.35 0.00 0.04 0.000
2:49am 320 2 3 43 74 74.0 50.4 29.32 50.4 561 1991 143 -0.35 0.00 0.04 0.000
2:50am 354 4 4 41 74 74.0 50.4 29.32 49.3 562 1991 144 -0.34 0.00 0.04 0.000
2:51am 5 1 6 41 74 74.0 50.4 29.32 50.4 561 1991 143 -0.34 0.00 0.04 0.000
2:52am 5 1 6 41 74 74.0 50.5 29.32 50.5 561 1991 149 -0.23 0.00 0.04 0.000
2:53am 5 2 6 41 73 74.0 50.4 29.32 50.4 561 2079 143 -0.33 0.00 0.04 0.000
2:54am 5 2 6 41 72 74.0 50.5 29.32 50.5 561 2169 149 -0.22 0.00 0.04 0.000
2:55am 21 3 6 41 72 74.0 50.5 29.32 50.2 561 2169 149 -0.22 0.00 0.04 0.000
2:56am 21 2 4 41 73 74.0 50.5 29.32 50.5 560 2080 148 -0.22 0.00 0.03 0.000
2:57am 20 2 4 41 71 74.0 50.5 29.32 50.5 560 2260 148 -0.21 0.00 0.03 0.000
2:58am 16 1 4 41 71 74.0 50.5 29.32 50.5 560 2260 147 -0.21 0.00 0.03 0.000
2:59am 16 0 4 41 71 74.0 50.6 29.32 50.6 560 2261 154 -0.10 0.00 0.03 0.000
3:00am 16 0 4 41 72 74.0 50.6 29.32 50.6 560 2170 154 -0.10 0.00 0.03 0.000
3:01am 16 1 4 41 72 74.0 50.6 29.32 50.6 558 2170 151 -0.10 0.00 0.03 0.000
3:02am 16 1 4 41 71 74.0 50.6 29.32 50.6 558 2261 151 -0.10 0.00 0.03 0.000
3:03am 16 0 4 41 72 74.0 50.6 29.32 50.6 559 2170 153 -0.10 0.00 0.03 0.000
3:04am 16 0 4 41 73 74.0 50.6 29.32 50.6 558 2081 151 -0.10 0.00 0.03 0.000
3:05am 216 2 4 41 73 74.0 50.6 29.32 50.6 557 2081 150 -0.09 0.00 0.03 0.000
3:06am 289 3 4 41 73 74.0 50.5 29.32 50.2 557 2080 144 -0.19 0.00 0.03 0.000
3:07am 28 1 4 41 73 74.0 50.5 29.32 50.5 556 2080 142 -0.19 0.00 0.03 0.000
3:08am 28 0 4 41 73 74.0 50.5 29.32 50.5 556 2080 142 -0.18 0.00 0.03 0.000
3:09am 28 0 4 41 72 74.0 50.5 29.33 50.5 554 2169 140 -0.18 0.00 0.03 0.000
3:10am 12 1 4 41 72 74.2 50.5 29.32 50.5 557 2169 144 -0.18 0.00 0.03 0.000
3:11am 12 1 3 41 71 74.2 50.4 29.33 50.4 554 2259 133 -0.27 0.00 0.03 0.000
3:12am 193 3 6 41 71 74.2 50.4 29.32 50.1 558 2259 138 -0.27 0.00 0.03 0.000
3:13am 337 1 6 41 71 74.2 50.5 29.33 50.5 553 2260 139 -0.17 0.00 0.03 0.000
3:14am 351 1 6 41 72 74.2 50.5 29.33 50.5 554 2169 140 -0.16 0.00 0.03 0.000
3:15am 291 2 6 41 70 74.2 50.4 29.33 50.4 554 2350 133 -0.26 0.00 0.03 0.000
3:16am 291 0 2 41 71 74.2 50.4 29.32 50.4 555 2259 135 -0.26 0.00 0.02 0.000
3:17am 291 0 2 41 70 74.0 50.4 29.33 50.4 554 2350 133 -0.25 0.00 0.02 0.000
3:18am 291 0 2 41 70 74.0 50.4 29.33 50.4 552 2350 131 -0.25 0.00 0.02 0.000
3:19am 38 2 3 41 70 74.0 50.4 29.33 50.4 552 2350 131 -0.24 0.00 0.02 0.000
3:20am 12 2 3 41 70 74.0 50.4 29.33 50.4 551 2350 130 -0.24 0.00 0.02 0.000
3:21am 12 0 2 41 72 74.0 50.3 29.33 50.3 551 2167 123 -0.33 0.00 0.02 0.000
3:22am 12 3 3 41 72 74.0 50.4 29.33 50.1 551 2168 130 -0.23 0.00 0.02 0.000
3:23am 310 2 5 41 70 74.0 50.3 29.33 50.3 551 2349 123 -0.32 0.00 0.02 0.000
|
Data provided from: Mark Hofmann's Bel Air, MD Weather Station |